Weather History for Sioux City, IA

Change the Weather History Date:

Thursday, June 5, 2014

  Actual Average Record
Temperature  
Mean Temperature 68 °F 67 °F  
Max Temperature 75 °F 79 °F 100 °F (1933)
Min Temperature 61 °F 56 °F 42 °F (1935)
Degree Days  
Heating Degree Days 0 2  
Month to date heating degree days 1 10  
Since 1 June heating degree days 1 10  
Since 1 July heating degree days 7227 6844  
Cooling Degree Days 3 4  
Month to date cooling degree days 28 19  
Year to date cooling degree days 149 83  
Since 1 June cooling degree days 28 19  
Growing Degree Days 18 (Base 50)    
Moisture  
Dew Point 64 °F    
Average Humidity 85    
Maximum Humidity 100    
Minimum Humidity 69    
Precipitation  
Precipitation 0.21 in 0.14 in 1.77 in (1918)
Month to date precipitation 1.56 0.68  
Year to date precipitation 6.81 10.66  
Snow  
Snow 0.00 in 0.00 in 0.00 in ()
Month to date snowfall 0.0 0.0  
Since 1 June snowfall 0.0 0.0  
Since 1 July snowfall 23.8 34.8  
Snow Depth 0.00 in    
Sea Level Pressure  
Sea Level Pressure 29.87 in    
Wind  
Wind Speed 7 mph (SE)    
Max Wind Speed 18 mph    
Max Gust Speed 23 mph    
Visibility 6 miles    
Events Rain , Thunderstorm    
T = Trace of Precipitation, MM = Missing Value Source: NWS Daily Summary

Daily Weather History Graph

Daily Weather History Graph

Search for Another Location

Airport:

Trip Planner

Search our weather history database for the weather conditions in past years. The results will help you decide how hot, cold, wet, or windy it might be!

Date:

Astronomy

Jun. 05, 2014 Rise Set
Actual Time 5:49 AM CDT 8:58 PM CDT
Civil Twilight 5:15 AM CDT 9:33 PM CDT
Nautical Twilight 4:31 AM CDT 10:17 PM CDT
Astronomical Twilight 3:38 AM CDT 11:10 PM CDT
Moon 1:13 PM CDT (6/5) 1:21 AM CDT (6/5)
Length of Visible Light 16h 17m
Length of Day
15h 09m
Waxing Crescent, 49% of the Moon is Illuminated
Jun 5
Waxing Crescent
Jun 5
First Quarter
Jun 12
Full
Jun 19
Last Quarter
Jun 27
New

Hourly Weather History & Observations

Time (CDT) Temp. Dew Point Humidity Pressure Visibility Wind Dir Wind Speed Gust Speed Precip Events Conditions
12:52 AM 66.0 °F 62.1 °F 87% 29.88 in 10.0 mi ESE 4.6 mph - N/A   Unknown
1:52 AM 63.0 °F 61.0 °F 93% 29.91 in 10.0 mi Calm Calm - N/A   Unknown
2:52 AM 64.0 °F 62.1 °F 93% 29.91 in 10.0 mi East 4.6 mph - N/A   Unknown
3:52 AM 64.0 °F 62.1 °F 93% 29.87 in 7.0 mi ESE 6.9 mph - N/A   Unknown
4:52 AM 63.0 °F 62.1 °F 97% 29.83 in 7.0 mi East 5.8 mph - N/A   Unknown
5:52 AM 62.1 °F 61.0 °F 96% 29.88 in 4.0 mi SE 5.8 mph - N/A   Mist
6:52 AM 63.0 °F 62.1 °F 97% 29.87 in 5.0 mi SE 9.2 mph - N/A   Mist
7:52 AM 64.0 °F 62.1 °F 93% 29.85 in 6.0 mi SE 16.1 mph 23.0 mph N/A   Mist
8:52 AM 64.9 °F 62.1 °F 90% 29.87 in 7.0 mi SSE 9.2 mph - N/A   Unknown
9:52 AM 66.2 °F - N/A% 29.85 in - North - - N/A   Unknown
10:44 AM 68.0 °F 63.0 °F 84% 29.87 in 7.0 mi South 6.9 mph - N/A   Overcast
10:52 AM 69.1 °F 63.0 °F 81% 29.86 in 6.0 mi South 6.9 mph - N/A   Haze
11:52 AM 68.0 °F 64.0 °F 87% 29.88 in 7.0 mi WSW 4.6 mph - N/A   Overcast
12:52 PM 70.0 °F 64.9 °F 84% 29.89 in 5.0 mi South 4.6 mph - N/A   Haze
1:14 PM 71.1 °F 64.9 °F 81% 29.90 in 6.0 mi Variable 3.5 mph - N/A   Haze
1:52 PM 71.1 °F 64.9 °F 81% 29.86 in 4.0 mi ESE 8.1 mph - N/A   Haze
2:08 PM 70.0 °F 64.9 °F 84% 29.88 in 4.0 mi ESE 6.9 mph - N/A Thunderstorm Unknown
2:20 PM 70.0 °F 64.9 °F 84% 29.89 in 5.0 mi ESE 5.8 mph - 0.00 in Rain , Thunderstorm Light Thunderstorms and Rain
2:29 PM 70.0 °F 64.9 °F 84% 29.90 in 5.0 mi ESE 4.6 mph - 0.00 in Rain , Thunderstorm Light Thunderstorms and Rain
2:49 PM 69.8 °F 66.2 °F 88% 29.90 in 2.0 mi Calm Calm - 0.05 in Rain , Thunderstorm Heavy Thunderstorms and Rain
2:52 PM 68.0 °F 66.0 °F 93% 29.90 in 1.5 mi Calm Calm - 0.07 in Rain , Thunderstorm Heavy Thunderstorms and Rain
3:28 PM 68.0 °F 66.0 °F 93% 29.88 in 3.0 mi SSW 8.1 mph - 0.06 in Rain , Thunderstorm Light Thunderstorms and Rain
3:35 PM 68.0 °F 66.0 °F 93% 29.87 in 2.0 mi SSE 6.9 mph - 0.07 in Rain , Thunderstorm Rain
3:38 PM 68.0 °F 66.0 °F 93% 29.87 in 3.0 mi SSE 8.1 mph - 0.08 in Rain Rain
3:49 PM 68.0 °F 66.2 °F 94% 29.86 in 2.5 mi SSE 9.2 mph - 0.13 in Rain Rain
3:52 PM 68.0 °F 66.0 °F 93% 29.85 in 2.5 mi South 9.2 mph - 0.13 in Rain Light Rain
4:10 PM 71.1 °F 66.9 °F 87% 29.86 in 5.0 mi SE 9.2 mph - 0.01 in   Mostly Cloudy
4:52 PM 73.0 °F 66.0 °F 79% 29.84 in 10.0 mi SE 10.4 mph - 0.01 in   Partly Cloudy
5:52 PM 75.0 °F 66.9 °F 76% 29.83 in 10.0 mi SE 9.2 mph - N/A   Clear
6:52 PM 75.0 °F 64.0 °F 69% 29.82 in 10.0 mi SSE 10.4 mph - N/A   Clear
7:52 PM 73.9 °F 66.0 °F 76% 29.83 in 10.0 mi SSE 10.4 mph - N/A   Clear
8:52 PM 71.1 °F 64.9 °F 81% 29.85 in 10.0 mi South 4.6 mph - N/A   Clear
9:52 PM 66.9 °F 64.0 °F 90% 29.87 in 10.0 mi East 5.8 mph - N/A   Clear
10:52 PM 64.9 °F 63.0 °F 93% 29.88 in 10.0 mi Calm Calm - N/A   Clear
11:52 PM 64.0 °F 62.1 °F 93% 29.89 in 9.0 mi Calm Calm - N/A   Clear